Spokane Fairchild, WA
on Thursday, February 21, 2013

Thursday
Previous Day Next Day
Daily Summary
 ActualAverage (KGEG)Record (KGEG)
Temperature
Mean Temperature °F 34°F  
Max Temperature 36°F 41°F 60°F (1958)
Min Temperature 24°F 27°F -2°F (1894)
Degree Days
Heating Degree Days 35 31  
Month to date heating degree days 684  
Since 1 July heating degree days 4617  
Cooling Degree Days 0 0  
Month to date cooling degree days 0  
Year to date cooling degree days 0  
Moisture
Dew Point 29°F   
Average Humidity 93    
Maximum Humidity 100    
Minimum Humidity 81    
Precipitation
Precipitation 0.01 in 0.04 in 0.49 in (1936)
Month to date precipitation 0.98  
Year to date precipitation 2.77  
Snow
Snow 0.00 in 0.20 in 6.60 in (1936)
Month to date snowfall 5.4  
Since 1 July snowfall 38.9  
Snow Depth in   
Wind
Wind Speed 8 mph   
Max Wind Speed 14 mph   
Max Gust Speed mph   
Visibility 9 miles   
Events Rain , Snow   

Key: T is trace of precipitation, MM is missing value
Source: NWS Daily Summary
Time(PST)TemperatureDew PointHumidity Pressure Visibility Wind DirectionWind SpeedGust SpeedPrecipitationEvents Conditions
12:19 AM 24.8°F 23.0°F 93% 29.94 in 10.0 miles SSE 4.6 mph - N/A   Scattered Clouds
12:36 AM 26.6°F 23.0°F 86% 29.95 in 10.0 miles SSE 4.6 mph - N/A   Mostly Cloudy
12:58 AM 26.4°F 24.1°F 91% 30.03 in 10.0 miles SSE 4.6 mph - 0.00 in   Overcast
1:58 AM 28.4°F 25.7°F 90% 30.02 in 10.0 miles SSE 3.5 mph - N/A   Overcast
2:18 AM 28.4°F 24.8°F 86% 29.95 in 10.0 miles SSE 5.8 mph - N/A   Overcast
2:24 AM 28.4°F 26.6°F 93% 29.95 in 10.0 miles SSE 6.9 mph - N/A   Overcast
2:45 AM 28.4°F 26.6°F 93% 29.95 in 10.0 miles SSE 5.8 mph - N/A   Overcast
2:58 AM 28.4°F 25.7°F 90% 30.02 in 10.0 miles SSE 4.6 mph - 0.00 in   Overcast
2:59 AM 28.4°F 24.8°F 86% 29.96 in 10.0 miles SSE 4.6 mph - N/A   Overcast
3:58 AM 28.4°F 25.5°F 89% 30.02 in 10.0 miles SE 6.9 mph - 0.00 in   Overcast
4:58 AM 27.1°F 24.6°F 90% 30.04 in 10.0 miles SSE 4.6 mph - N/A   Clear
5:30 AM 26.6°F 24.8°F 93% 29.95 in 10.0 miles SSE 4.6 mph - N/A   Overcast
5:43 AM 26.6°F 24.8°F 93% 29.95 in 10.0 miles SSE 6.9 mph - N/A   Overcast
5:58 AM 27.1°F 25.2°F 92% 30.04 in 10.0 miles SSE 10.4 mph - 0.00 in   Overcast
6:58 AM 26.8°F 25.3°F 94% 30.02 in 10.0 miles SSE 9.2 mph - N/A   Overcast
7:49 AM 28.4°F 26.6°F 93% 29.96 in 10.0 miles SSE 5.8 mph - N/A   Mostly Cloudy
7:58 AM 27.7°F 26.2°F 94% 30.05 in 10.0 miles South 8.1 mph - N/A   Mostly Cloudy
8:03 AM 28.4°F 26.6°F 93% 29.96 in 10.0 miles South 10.4 mph - N/A   Mostly Cloudy
8:13 AM 28.4°F 26.6°F 93% 29.96 in 10.0 miles South 10.4 mph - N/A   Overcast
8:43 AM 30.2°F 28.4°F 93% 29.95 in 10.0 miles South 11.5 mph - N/A   Overcast
8:58 AM 29.7°F 28.4°F 95% 30.04 in 10.0 miles South 10.4 mph - N/A   Overcast
9:11 AM 32.0°F 28.4°F 87% 29.96 in 10.0 miles South 10.4 mph - N/A   Overcast
9:25 AM 32.0°F 28.4°F 87% 29.96 in 10.0 miles SSW 11.5 mph - N/A   Overcast
9:30 AM 32.0°F 30.2°F 93% 29.95 in 10.0 miles South 10.4 mph - N/A   Overcast
9:35 AM 32.0°F 30.2°F 93% 29.95 in 10.0 miles South 12.7 mph - N/A   Overcast
9:45 AM 32.0°F 30.2°F 93% 29.96 in 10.0 miles SSW 13.8 mph - N/A   Overcast
9:58 AM 31.5°F 30.2°F 95% 30.03 in 10.0 miles South 10.4 mph - 0.00 in   Overcast
10:44 AM 32.0°F 30.2°F 93% 29.95 in 10.0 miles South 9.2 mph - N/A   Overcast
10:47 AM 32.0°F 30.2°F 93% 29.95 in 10.0 miles South 6.9 mph - N/A   Overcast
10:52 AM 32.0°F 32.0°F 100% 29.95 in 10.0 miles South 9.2 mph - N/A   Overcast
10:58 AM 31.8°F 30.4°F 94% 30.03 in 10.0 miles South 9.2 mph - 0.00 in   Overcast
10:59 AM 32.0°F 30.2°F 93% 29.95 in 10.0 miles South 9.2 mph - N/A   Overcast
11:39 AM 32.0°F 32.0°F 100% 29.94 in 4.0 miles SSW 10.4 mph - N/A Snow Light Snow
11:54 AM 32.0°F 32.0°F 100% 29.94 in 2.5 miles SSW 10.4 mph - N/A Snow Light Snow
11:58 AM 31.8°F 30.9°F 96% 30.02 in 2.5 miles SSW 10.4 mph - 0.00 in Snow Light Snow
12:03 PM 32.0°F 32.0°F 100% 29.94 in 3.0 miles SSW 9.2 mph - N/A Snow Light Snow
12:48 PM 32.0°F 32.0°F 100% 29.93 in 2.0 miles SW 11.5 mph - N/A Snow Light Snow
12:53 PM 32.0°F 32.0°F 100% 29.93 in 1.8 miles SW 12.7 mph - N/A Snow Light Snow
12:58 PM 32.0°F 32.0°F 100% 30.01 in 1.5 miles SW 11.5 mph - 0.01 in Snow Light Snow
1:08 PM 32.0°F 32.0°F 100% 29.93 in 1.8 miles SW 9.2 mph - N/A Snow Light Snow
1:28 PM 32.0°F 32.0°F 100% 29.93 in 2.0 miles SW 9.2 mph - N/A Snow Light Snow
1:33 PM 32.0°F 32.0°F 100% 29.93 in 1.8 miles SW 10.4 mph - N/A Snow Light Snow
1:38 PM 32.0°F 32.0°F 100% 29.92 in 2.0 miles SW 10.4 mph - N/A Snow Light Snow
1:43 PM 32.0°F 32.0°F 100% 29.92 in 2.0 miles SSW 8.1 mph - N/A Snow Light Snow
1:53 PM 32.0°F 32.0°F 100% 29.92 in 7.0 miles SSW 9.2 mph - N/A Rain Light Rain
1:58 PM 32.5°F 31.5°F 96% 30.01 in 10.0 miles SSW 9.2 mph - 0.00 in Rain Light Rain
2:03 PM 32.0°F 32.0°F 100% 29.92 in 10.0 miles SW 13.8 mph - N/A Rain Light Rain
2:08 PM 32.0°F 32.0°F 100% 29.93 in 10.0 miles SW 12.7 mph - N/A   Light Drizzle
2:38 PM 33.8°F 32.0°F 93% 29.93 in 10.0 miles SW 13.8 mph - N/A Rain Light Rain
2:58 PM 34.5°F 32.4°F 92% 29.99 in 10.0 miles SSW 12.7 mph - 0.00 in Rain Light Rain
2:59 PM 35.6°F 32.0°F 87% 29.92 in 10.0 miles SSW 13.8 mph - N/A   Overcast
3:00 PM 35.6°F 32.0°F 87% 29.92 in 10.0 miles SW 12.7 mph - N/A Rain Light Rain
3:35 PM 35.6°F 32.0°F 87% 29.92 in 10.0 miles SW 9.2 mph - N/A   Light Drizzle
3:58 PM 36.1°F 32.0°F 85% 29.99 in 10.0 miles SSW 12.7 mph - 0.00 in   Light Drizzle
4:04 PM 35.6°F 32.0°F 87% 29.92 in 10.0 miles SW 11.5 mph - N/A   Scattered Clouds
4:58 PM 35.2°F 30.0°F 81% 29.99 in 10.0 miles SW 9.2 mph - 0.00 in   Partly Cloudy
5:58 PM 34.2°F 29.7°F 84% 30.00 in 10.0 miles South 6.9 mph - N/A   Mostly Cloudy
6:58 PM 34.0°F 29.5°F 84% 30.01 in 10.0 miles South 10.4 mph - N/A   Scattered Clouds
7:58 PM 32.4°F 28.9°F 87% 30.00 in 10.0 miles South 11.5 mph - N/A   Mostly Cloudy
8:50 PM 32.0°F 30.2°F 93% 29.92 in 10.0 miles South 10.4 mph - N/A   Overcast
8:58 PM 32.5°F 29.5°F 88% 29.99 in 10.0 miles South 10.4 mph - 0.00 in   Light Drizzle
9:03 PM 32.0°F 30.2°F 93% 29.93 in 10.0 miles South 10.4 mph - N/A   Overcast
9:11 PM 32.0°F 30.2°F 93% 29.92 in 10.0 miles South 11.5 mph - N/A   Light Drizzle
9:21 PM 32.0°F 30.2°F 93% 29.93 in 10.0 miles South 10.4 mph - N/A   Overcast
9:28 PM 32.0°F 30.2°F 93% 29.93 in 10.0 miles South 10.4 mph - N/A   Light Drizzle
9:38 PM 32.0°F 30.2°F 93% 29.93 in 10.0 miles South 11.5 mph - N/A   Overcast
9:51 PM 32.0°F 30.2°F 93% 29.93 in 10.0 miles South 10.4 mph - N/A   Light Drizzle
9:53 PM 32.0°F 30.2°F 93% 29.93 in 10.0 miles South 12.7 mph - N/A   Overcast
9:58 PM 32.9°F 29.8°F 88% 30.00 in 10.0 miles South 12.7 mph - 0.00 in   Overcast
10:00 PM 32.0°F 30.2°F 93% 29.93 in 10.0 miles South 12.7 mph - N/A   Light Drizzle
10:01 PM 32.0°F 30.2°F 93% 29.93 in 10.0 miles South 12.7 mph - N/A   Overcast
10:37 PM 32.0°F 30.2°F 93% 29.93 in 10.0 miles South 12.7 mph - N/A   Overcast
10:47 PM 32.0°F 30.2°F 93% 29.93 in 10.0 miles South 12.7 mph - N/A   Mostly Cloudy
10:58 PM 32.0°F 29.5°F 90% 30.00 in 10.0 miles South 11.5 mph - 0.00 in   Scattered Clouds
11:16 PM 32.0°F 28.4°F 87% 29.93 in 10.0 miles South 9.2 mph - N/A   Clear
11:31 PM 32.0°F 28.4°F 87% 29.92 in 10.0 miles South 10.4 mph - N/A   Clear
11:51 PM 32.0°F 28.4°F 87% 29.92 in 10.0 miles SSW 11.5 mph - N/A   Clear
11:58 PM 30.6°F 28.6°F 92% 29.99 in 10.0 miles South 11.5 mph - 0.00 in   Clear
Moon Phase
Feb. 21 Feb. 25 Mar. 04 Mar. 11 Mar. 19
Sunrise:06:45 AM (PST) Moon Rise:01:32 PM (PST)2/21
Sunset:05:23 PM (PST) Moon Set:04:04 AM (PST)2/21

Copyright © 2014 The Weather Underground, Inc.